AI4Y Weather Reports


time (UTC)temp
C
wind
direction
speed
KPH
gust
KPH
rain 1hr
cm
rain 24hr
cm
rain mn
cm
humidity
%
barometer
mb
20260510140015 23 305 3.2 6.4 0.00 0.00 0.00 55 1016.2
20260510135015 22 4 1.6 4.8 0.00 0.00 0.00 58 1016.1
20260510134016 22 77 3.2 9.7 0.00 0.00 0.00 58 1016.2
20260510133035 21 84 1.6 6.4 0.00 0.00 0.00 61 1016.2
20260510132016 20 157 1.6 6.4 0.00 0.00 0.00 63 1016.1
20260510131036 19 73 4.8 9.7 0.00 0.00 0.00 66 1016.0
20260510130016 18 100 3.2 6.4 0.00 0.00 0.00 67 1015.9
20260510125016 18 143 1.6 6.4 0.00 0.00 0.00 70 1015.8
20260510124017 17 158 1.6 4.8 0.00 0.00 0.00 75 1015.7
20260510123016 16 153 1.6 4.8 0.00 0.00 0.00 77 1015.6
20260510122019 14 204 0.0 4.8 0.00 0.00 0.00 81 1015.5
20260510121017 13 295 1.6 4.8 0.00 0.00 0.00 86 1015.4
20260510120017 11 304 3.2 4.8 0.00 0.00 0.00 91 1015.1
20260510114018 9 296 3.2 4.8 0.00 0.00 0.00 98 1015.0
20260510113018 8 302 1.6 3.2 0.00 0.00 0.00 99 1014.9
20260510112018 8 312 3.2 4.8 0.00 0.00 0.00 100 1014.8
20260510111018 8 310 3.2 4.8 0.00 0.00 0.00 99 1014.6
20260510110018 7 280 0.0 3.2 0.00 0.00 0.00 99 1014.6
20260510105018 7 282 1.6 3.2 0.00 0.00 0.00 99 1014.6
20260510104016 6 299 1.6 3.2 0.00 0.00 0.00 99 1014.5
20260510103056 7 306 3.2 4.8 0.00 0.00 0.00 99 1014.5
20260510102016 7 295 1.6 3.2 0.00 0.00 0.00 99 1014.4
20260510101017 7 269 1.6 1.6 0.00 0.00 0.00 99 1014.2
20260510100036 7 0.0 0.0 0.00 0.00 0.00 100 1014.2
20260510095016 7 178 0.0 1.6 0.00 0.00 0.00 100 1014.1
20260510094017 7 296 1.6 3.2 0.00 0.00 0.00 100 1013.9
20260510093016 7 288 0.0 1.6 0.00 0.00 0.00 100 1013.9
20260510092017 7 302 1.6 3.2 0.00 0.00 0.00 100 1013.9
20260510091017 7 161 1.6 3.2 0.00 0.00 0.00 99 1013.8
20260510090137 7 304 1.6 3.2 0.00 0.00 0.00 99 1013.6
20260510085017 8 301 0.0 3.2 0.00 0.00 0.00 99 1013.4
20260510084021 8 159 1.6 4.8 0.00 0.00 0.00 99 1013.3
20260510083037 8 305 1.6 4.8 0.00 0.00 0.00 99 1013.4
20260510082038 8 229 0.0 1.6 0.00 0.00 0.00 99 1013.4
20260510081058 8 257 1.6 4.8 0.00 0.00 0.00 99 1013.2
20260510080015 8 58 0.0 6.4 0.00 0.00 0.00 98 1013.1
20260510075038 8 307 1.6 6.4 0.00 0.00 0.00 98 1013.0
20260510074016 8 310 3.2 6.4 0.00 0.00 0.00 97 1013.0
20260510073016 9 309 1.6 4.8 0.00 0.00 0.00 97 1013.0
20260510072015 9 278 1.6 3.2 0.00 0.00 0.00 97 1013.0
20260510071016 9 252 0.0 1.6 0.00 0.00 0.00 97 1013.0
20260510070015 9 144 0.0 1.6 0.00 0.00 0.00 96 1013.0
20260510065019 10 301 1.6 3.2 0.00 0.00 0.00 95 1013.0
20260510064016 10 296 1.6 3.2 0.00 0.00 0.00 94 1013.0
20260510063016 10 300 3.2 4.8 0.00 0.00 0.00 93 1013.0
20260510062017 10 288 1.6 3.2 0.00 0.00 0.00 94 1013.1
20260510061017 10 153 0.0 3.2 0.00 0.00 0.00 94 1013.2
20260510060037 10 178 0.0 3.2 0.00 0.00 0.00 92 1013.2
20260510055016 11 249 0.0 1.6 0.00 0.00 0.00 92 1013.1
20260510054037 10 301 1.6 3.2 0.00 0.00 0.00 93 1013.1
20260510053037 10 292 3.2 3.2 0.00 0.00 0.00 95 1013.0
20260510052017 10 301 3.2 4.8 0.00 0.00 0.00 94 1013.1
20260510051017 10 295 3.2 4.8 0.00 0.00 0.00 94 1013.1
20260510050018 10 300 3.2 3.2 0.00 0.00 0.00 94 1013.0
20260510045017 11 278 0.0 1.6 0.00 0.00 0.00 93 1013.2
20260510044018 11 295 3.2 4.8 0.00 0.00 0.00 91 1013.2
20260510043016 11 291 1.6 3.2 0.00 0.00 0.00 90 1013.1
20260510042016 11 295 1.6 3.2 0.00 0.00 0.00 89 1013.1
20260510041016 11 300 0.0 3.2 0.00 0.00 0.00 88 1013.1
20260510040015 11 276 0.0 3.2 0.00 0.00 0.00 88 1013.1
20260510035017 12 291 1.6 1.6 0.00 0.00 0.00 87 1013.1
20260510034016 12 307 1.6 4.8 0.00 0.00 0.00 85 1013.0
20260510033015 12 311 1.6 3.2 0.00 0.00 0.00 82 1012.9
20260510032016 12 126 1.6 3.2 0.00 0.00 0.00 82 1012.8
20260510031016 13 196 0.0 1.6 0.00 0.00 0.00 80 1012.8
20260510030016 13 274 1.6 1.6 0.00 0.00 0.00 79 1012.7
20260510025016 13 209 0.0 0.0 0.00 0.00 0.00 79 1012.7
20260510024017 13 213 0.0 1.6 0.00 0.00 0.00 77 1012.6
20260510023016 15 274 0.0 1.6 0.00 0.00 0.00 75 1012.5
20260510022017 15 286 1.6 3.2 0.00 0.00 0.00 71 1012.4
20260510021017 15 266 0.0 1.6 0.00 0.00 0.00 69 1012.3
20260510020017 15 112 0.0 3.2 0.00 0.00 0.00 70 1012.1
20260510015017 16 102 3.2 4.8 0.00 0.00 0.00 72 1011.8
20260510014038 16 123 3.2 4.8 0.00 0.00 0.00 69 1011.5
20260510013017 16 165 0.0 1.6 0.00 0.00 0.00 69 1011.4
20260510012038 16 289 0.0 3.2 0.00 0.00 0.00 65 1011.2
20260510011018 17 299 1.6 3.2 0.00 0.00 0.00 62 1011.1
20260510010017 17 253 0.0 1.6 0.00 0.00 0.00 59 1010.8
20260510005018 18 0.0 0.0 0.00 0.00 0.00 57 1010.8
20260510004018 19 0.0 0.0 0.00 0.00 0.00 54 1010.8
20260510003018 20 279 0.0 3.2 0.00 0.00 0.00 52 1010.7
20260510002015 21 290 1.6 3.2 0.00 0.00 0.00 52 1010.7
20260510001015 22 91 0.0 4.8 0.00 0.00 0.00 50 1010.5
20260510000016 22 311 1.6 4.8 0.00 0.00 0.00 49 1010.5
20260509235016 22 250 0.0 3.2 0.00 0.00 0.00 47 1010.3
20260509234016 23 301 3.2 6.4 0.00 0.00 0.00 47 1010.0
20260509233056 23 301 3.2 6.4 0.00 0.00 0.00 45 1010.0
20260509232037 25 298 4.8 11.3 0.00 0.00 0.00 43 1009.7
20260509231017 25 281 4.8 8.0 0.00 0.00 0.00 42 1009.6
20260509230017 25 304 4.8 9.7 0.00 0.00 0.00 42 1009.4
20260509225037 25 301 6.4 11.3 0.00 0.00 0.00 41 1009.4
20260509224017 26 287 4.8 9.7 0.00 0.00 0.00 41 1009.6
20260509223017 25 286 4.8 11.3 0.00 0.00 0.00 41 1009.6
20260509222017 26 305 6.4 12.9 0.00 0.00 0.00 40 1009.5
20260509221017 26 274 4.8 12.9 0.00 0.00 0.00 40 1009.5
20260509220017 26 277 4.8 14.5 0.00 0.00 0.00 40 1009.3
20260509215018 26 262 3.2 8.0 0.00 0.00 0.00 44 1009.3
20260509214018 27 295 4.8 9.7 0.00 0.00 0.00 44 1009.3
20260509213058 26 260 1.6 6.4 0.00 0.00 0.00 46 1009.2
20260509212021 26 248 1.6 6.4 0.00 0.00 0.00 47 1009.3
20260509211015 26 278 3.2 9.7 0.00 0.00 0.00 47 1009.2
20260509210035 26 261 4.8 9.7 0.00 0.00 0.00 47 1009.2
20260509205016 26 251 3.2 8.0 0.00 0.00 0.00 46 1009.2
20260509204016 26 260 3.2 9.7 0.00 0.00 0.00 45 1009.1
20260509203016 27 234 3.2 9.7 0.00 0.00 0.00 46 1009.2
20260509202016 26 178 3.2 8.0 0.00 0.00 0.00 46 1009.1
20260509201016 25 269 3.2 11.3 0.00 0.00 0.00 48 1009.0
20260509200016 25 275 1.6 4.8 0.00 0.00 0.00 48 1009.3
20260509195017 25 285 4.8 9.7 0.00 0.00 0.00 47 1009.2
20260509194017 25 214 3.2 6.4 0.00 0.00 0.00 50 1009.2
20260509193017 26 204 4.8 9.7 0.00 0.00 0.00 47 1009.2
20260509192017 25 209 4.8 11.3 0.00 0.00 0.00 50 1009.2
20260509191017 26 202 4.8 9.7 0.00 0.00 0.00 49 1009.4
20260509190017 26 196 4.8 11.3 0.00 0.00 0.00 48 1009.5
20260509185018 25 232 4.8 11.3 0.00 0.00 0.00 50 1009.6
20260509184018 25 222 4.8 11.3 0.00 0.00 0.00 50 1009.6
20260509183037 25 196 4.8 11.3 0.00 0.00 0.00 51 1009.8
20260509182038 24 191 4.8 9.7 0.00 0.00 0.00 54 1009.8
20260509181038 23 238 3.2 6.4 0.00 0.00 0.00 53 1010.2
20260509180018 24 218 4.8 12.9 0.00 0.00 0.00 54 1010.2
20260509175038 23 206 4.8 8.0 0.00 0.00 0.00 55 1010.3
20260509174015 23 223 3.2 8.0 0.00 0.00 0.00 56 1010.3
20260509173016 22 211 3.2 9.7 0.00 0.00 0.00 57 1010.4
20260509172016 23 201 4.8 8.0 0.00 0.00 0.00 53 1010.6
20260509171016 23 212 3.2 8.0 0.00 0.00 0.00 54 1010.7
20260509170016 24 212 4.8 11.3 0.00 0.00 0.00 54 1010.8
20260509165016 23 204 4.8 11.3 0.00 0.00 0.00 55 1010.8
20260509164016 22 207 4.8 8.0 0.00 0.00 0.00 58 1010.9
20260509163017 23 210 4.8 9.7 0.00 0.00 0.00 56 1011.1
20260509162017 22 185 4.8 8.0 0.00 0.00 0.00 58 1011.0
20260509161017 22 213 4.8 8.0 0.00 0.00 0.00 59 1011.0
20260509160037 21 209 3.2 8.0 0.00 0.00 0.00 63 1011.0
20260509155017 22 180 4.8 9.7 0.00 0.00 0.00 60 1011.2
20260509154017 21 244 3.2 8.0 0.00 0.00 0.00 61 1011.4
20260509153017 21 211 4.8 11.3 0.00 0.00 0.00 62 1011.6
20260509152017 22 212 4.8 9.7 0.00 0.00 0.00 62 1011.4
20260509151038 22 229 3.2 8.0 0.00 0.00 0.00 60 1011.4
20260509150058 21 224 4.8 8.0 0.00 0.00 0.00 61 1011.3
20260509145018 21 215 4.8 11.3 0.00 0.00 0.00 61 1011.3
20260509144058 21 235 3.2 9.7 0.00 0.00 0.00 62 1011.6
20260509143018 20 234 3.2 9.7 0.00 0.00 0.00 65 1011.9
20260509142018 19 253 3.2 8.0 0.00 0.00 0.00 67 1011.9
20260509141021 18 232 1.6 6.4 0.00 0.00 0.00 70 1011.8